Location: Asheville, NC
(35.6000°N, 82.5500°W)
Time: 07:20:04
(UTC-04:00)

CUTE 1.7 + AOD 2 - Pass Details

Date: 09 January 2018
Orbit: 595 x 612 km, 97.5° (Epoch: 18 July)

Event Time Altitude Azimuth Distance (km) Brightness Sun altitude
Rises 19:47:27 0° 206° (SSW) 2,858 ? -26.4°
Reaches altitude 10° 19:50:23 10° 229° (SW) 1,960 ? -27.0°
Maximum altitude 19:53:00 16° 267° (W) 1,612 ? -27.5°
Drops below altitude 10° 19:55:38 10° 305° (NW) 1,968 ? -28.0°
Sets 19:58:36 0° 327° (NNW) 2,876 ? -28.6°
